Погода в Сардане

Россия / Удмуртская Республика     56°25′18″N   52°04′02″E
темп.,
°C
ветер,
м/с
пор.,
м/с
влажн.,
%
обл.,
%
осадки,
мм/ч
давл.,
гПа
погр.,
м
12 апреля, пн
пн1201:00+2с2699100 0.1 1034146
04:00−1ссв1398100 0.1 103661
07:00+1ссв2594100 0.0 1038119
10:00+5св2487100 0.0 1039202
13:00+9св2483100 0.0 1038458
16:00+10всв2479100 0.0 1039580
19:00+6всв2295100 0.0 103927
22:00+4в269399 0.0 104091
13 апреля, вт
вт1301:00+3вюв249384 0.0 103959
04:00+3вюв2492100 0.0 103962
07:00+4вюв2889100 0.0 1039163
10:00+9юв3669100 0.0 1038317
13:00+13ююв3459100 0.0 1036539
16:00+15ю346157 0.0 1034691
19:00+11ю228186 0.0 103328
22:00+9ю228721 0.0 103332
14 апреля, ср
ср1401:00+9ююз228959 0.0 103225
04:00+8ююз229051 0.0 103230
07:00+8ююз248748 0.0 103286
10:00+14ююз346256 0.0 1031396
13:00+17ююз344610 0.0 1029991
16:00+17ююз34427 0.0 10281082
19:00+13ююз226317 0.0 102716
22:00+10ю22735 0.0 102611
15 апреля, чт
чт1501:00+9ю22805 0.0 102511
04:00+8ююз22857 0.0 102511
07:00+9ю248135 0.0 102479
10:00+14ююз355928 0.0 1022542
13:00+17юз34486 0.0 10211235
16:00+18юз34435 0.0 10191483
19:00+14ююз23606 0.0 101862
22:00+11юз236913 0.0 101842
16 апреля, пт
пт1601:00+9юз227415 0.0 101726
04:00+8зюз227925 0.0 101617
07:00+9юз2279100 0.0 101532
10:00+11юз2478100 0.0 1014177
13:00+13зюз367235 0.4 1012364
16:00+16зсз584469 0.8 10102306
19:00+5ссз71187100 0.1 1014684
22:00+3с6128035 0.5 10161072